Location: Poughquag
(41.6090°N, 73.6820°W)
Time: 11:29:19
(UTC-04:00)

S-56A Canister/Altair - Pass Details

Date: 29 May 2020
Orbit: 633 x 2499 km, 38.9° (Epoch: 06 July)

Event Time Altitude Azimuth Distance (km) Brightness Sun altitude
Rises 10:20:47 0° 280° (W) 4,442 11.1 52.6°
Reaches altitude 10° 10:23:25 10° 276° (W) 3,686 10.8 53.1°
Maximum altitude 10:33:13 61° 200° (SSW) 2,190 10.7 54.7°
Drops below altitude 10° 10:46:59 10° 125° (SE) 5,040 12.4 57.1°
Sets 10:51:14 0° 122° (ESE) 6,137 12.6 57.8°
